FW4098 Weather Reports


Display with metric or nautical units.
time (UTC)temp
F
wind
direction
speed
MPH
gust
MPH
rain 1hr
in
rain 24hr
in
rain mn
in
humidity
%
barometer
mb
20260507000036 68 360 3.0 10.0 0.00 0.00 0.00 53 1015.3
20260506234533 68 360 2.0 9.0 0.00 0.00 0.00 54 1015.2
20260506233030 69 360 6.0 13.0 0.00 0.00 0.00 52 1015.0
20260506231533 68 360 3.0 16.0 0.00 0.00 0.00 53 1014.8
20260506230030 69 360 3.0 11.0 0.00 0.00 0.00 51 1014.7
20260506224529 70 360 3.0 13.0 0.00 0.00 0.00 52 1014.6
20260506223027 69 64 5.0 12.0 0.00 0.00 0.00 52 1014.5
20260506221526 69 174 4.0 14.0 0.00 0.00 0.00 53 1014.5
20260506220025 69 223 4.0 10.0 0.00 0.00 0.00 52 1014.6
20260506214526 69 208 6.0 14.0 0.00 0.00 0.00 52 1014.6
20260506213023 69 53 6.0 12.0 0.00 0.00 0.00 53 1014.8
20260506211537 68 232 3.0 11.0 0.00 0.00 0.00 53 1014.9
20260506210032 69 360 5.0 11.0 0.00 0.00 0.00 53 1015.0
20260506204522 68 183 6.0 15.0 0.00 0.00 0.00 54 1015.2
20260506203018 67 360 4.0 12.0 0.00 0.00 0.00 56 1015.3
20260506201516 67 360 2.0 11.0 0.00 0.00 0.00 55 1015.5
20260506200014 66 360 6.0 12.0 0.00 0.00 0.00 56 1015.5
20260506194512 65 360 3.0 9.0 0.00 0.00 0.00 58 1015.7
20260506193009 63 360 1.0 11.0 0.00 0.00 0.00 60 1015.8
20260506191507 62 360 2.0 12.0 0.00 0.00 0.00 58 1016.0
20260506190104 62 360 4.0 11.0 0.00 0.00 0.00 60 1015.7
20260506184502 60 360 4.0 10.0 0.00 0.00 0.00 61 1015.9
20260506183001 61 360 3.0 11.0 0.00 0.00 0.00 63 1015.9
20260506181606 58 360 5.0 11.0 0.00 0.00 0.00 63 1015.7
20260506180058 59 360 3.0 12.0 0.00 0.00 0.00 62 1016.0
20260506174557 58 360 8.0 15.0 0.00 0.00 0.00 61 1016.3
20260506173125 58 360 5.0 13.0 0.00 0.00 0.00 61 1016.3
20260506171559 58 360 4.0 15.0 0.00 0.00 0.00 61 1016.3
20260506170107 58 360 8.0 17.0 0.00 0.00 0.00 62 1016.2
20260506164554 58 360 3.0 14.0 0.00 0.00 0.00 61 1016.3
20260506163058 59 360 6.0 15.0 0.00 0.00 0.00 61 1016.6
20260506161550 58 360 8.0 18.0 0.00 0.00 0.00 62 1016.6
20260506160049 57 360 5.0 15.0 0.00 0.00 0.00 63 1016.9
20260506154605 56 360 9.0 19.0 0.00 0.00 0.00 63 1016.6
20260506153042 55 360 4.0 12.0 0.00 0.00 0.00 65 1016.9
20260506151543 55 360 3.0 11.0 0.00 0.00 0.00 65 1016.7
20260506150042 55 360 3.0 13.0 0.00 0.00 0.00 64 1016.9
20260506144549 55 360 3.0 17.0 0.00 0.00 0.00 64 1016.9
20260506143037 55 360 2.0 10.0 0.00 0.00 0.00 65 1016.9
20260506141533 53 360 4.0 13.0 0.00 0.00 0.00 66 1016.5
20260506140034 53 360 6.0 14.0 0.00 0.00 0.00 67 1016.2
20260506134526 52 360 6.0 16.0 0.00 0.00 0.00 68 1016.1
20260506133023 52 360 9.0 14.0 0.00 0.00 0.00 68 1015.7
20260506131520 52 360 5.0 16.0 0.00 0.00 0.00 68 1015.3
20260506130017 52 360 7.0 17.0 0.00 0.00 0.00 68 1015.1
20260506124514 52 360 4.0 16.0 0.00 0.00 0.00 69 1014.6
20260506123009 51 360 6.0 17.0 0.00 0.00 0.00 69 1014.3
20260506121507 51 360 7.0 11.0 0.00 0.00 0.00 70 1014.6
20260506120004 51 360 5.0 12.0 0.00 0.00 0.00 71 1014.2
20260506114504 51 360 5.0 12.0 0.00 0.00 0.00 71 1014.2
20260506113100 51 360 7.0 13.0 0.00 0.00 0.00 72 1014.1
20260506111558 51 360 9.0 15.0 0.00 0.00 0.00 73 1013.9
20260506110057 51 360 7.0 18.0 0.00 0.00 0.00 74 1014.0
20260506104620 51 360 9.0 17.0 0.00 0.00 0.00 77 1014.1
20260506103052 51 360 6.0 17.0 0.00 0.00 0.00 78 1013.8
20260506101551 51 360 9.0 14.0 0.00 0.00 0.00 78 1013.4
20260506100048 51 360 5.0 12.0 0.00 0.00 0.00 79 1013.3
20260506094547 51 360 8.0 18.0 0.00 0.00 0.00 79 1013.2
20260506093045 51 360 10.0 17.0 0.00 0.00 0.00 79 1012.8
20260506091542 51 360 6.0 15.0 0.00 0.00 0.00 79 1013.2
20260506090045 52 360 5.0 14.0 0.00 0.00 0.00 79 1013.0
20260506084538 52 360 5.0 13.0 0.00 0.00 0.00 78 1012.9
20260506083040 52 360 7.0 13.0 0.00 0.00 0.00 78 1012.6
20260506081529 52 360 5.0 14.0 0.00 0.00 0.00 77 1012.2
20260506073025 52 360 6.0 13.0 0.00 0.00 0.00 78 1011.8
20260506071526 52 360 3.0 10.0 0.00 0.00 0.00 77 1012.1
20260506061516 52 360 5.0 14.0 0.00 0.00 0.00 76 1011.5
20260506044501 53 360 6.0 12.0 0.00 0.00 0.00 75 1010.8
20260506043100 54 360 6.0 13.0 0.00 0.00 0.00 74 1010.9
20260506041558 54 360 3.0 12.0 0.00 0.00 0.00 74 1010.8
20260506040055 54 360 5.0 15.0 0.00 0.00 0.00 73 1010.6
20260506034559 55 360 4.0 16.0 0.00 0.00 0.00 73 1010.5
20260506033052 55 360 9.0 18.0 0.00 0.00 0.00 73 1010.2
20260506031554 55 360 9.0 16.0 0.00 0.00 0.00 72 1009.8
20260506030046 56 360 8.0 15.0 0.00 0.00 0.00 72 1010.0
20260506024547 56 360 5.0 16.0 0.00 0.00 0.00 71 1010.1
20260506023043 56 360 11.0 21.0 0.00 0.00 0.00 72 1009.8
20260506021552 56 360 8.0 19.0 0.00 0.00 0.00 73 1009.5
20260506020039 56 360 7.0 17.0 0.00 0.00 0.00 73 1009.3
20260506014536 56 360 9.0 20.0 0.00 0.00 0.00 73 1008.8
20260506013033 57 360 11.0 19.0 0.00 0.00 0.00 74 1008.5
20260506011531 57 360 6.0 15.0 0.00 0.00 0.00 73 1008.1
20260506010036 58 360 8.0 15.0 0.00 0.00 0.00 73 1007.9
20260506004525 58 360 7.0 17.0 0.00 0.00 0.00 73 1007.7
20260506003023 59 360 11.0 17.0 0.00 0.00 0.00 72 1007.6
20260506001518 60 360 8.0 19.0 0.00 0.00 0.00 70 1007.5